,,Stat5,,Stat1,,Stat2,,Stat3,,Stat4,,Wind1,,Wind1,
time,status,PA1M_AVG,status,PR1M_SUM,status,RH1M_AVG,status,SR1M_AVG,status,TA1M_AVG,status,W1dAve1m,status,W1sAve1m,
2001-01-12, 00:00:00,VALID,917.467,VALID,0,VALID,96.1498,VALID,0.0169808,VALID,19.5755,VALID,57,VALID,0,
2001-01-12, 00:01:00,VALID,917.467,VALID,0,VALID,96.0875,VALID,0.0169808,VALID,19.5789,VALID,57,VALID,0,
2001-01-12, 00:02:00,VALID,917.467,VALID,0,VALID,96.1422,VALID,0.0339617,VALID,19.565,VALID,59,VALID,0,
2001-01-12, 00:03:00,VALID,917.482,VALID,0,VALID,96.1765,VALID,0.0169808,VALID,19.5822,VALID,94,VALID,0,
2001-01-12, 00:04:00,VALID,917.5,VALID,0,VALID,96.1905,VALID,0.0169808,VALID,19.5789,VALID,94,VALID,0,
2001-01-12, 00:05:00,VALID,917.523,VALID,0,VALID,96.2363,VALID,0.0169808,VALID,19.5789,VALID,94,VALID,0,
2001-01-12, 00:06:00,VALID,917.542,VALID,0,VALID,96.2872,VALID,-0.0849042,VALID,19.5929,VALID,94,VALID,0,
2001-01-12, 00:07:00,VALID,917.556,VALID,0,VALID,96.3902,VALID,-0.101885,VALID,19.6192,VALID,94,VALID,0,
2001-01-12, 00:08:00,VALID,917.547,VALID,0,VALID,96.3914,VALID,-0.101885,VALID,19.6353,VALID,94,VALID,0,
2001-01-12, 00:09:00,VALID,917.556,VALID,0,VALID,96.319,VALID,-0.0849042,VALID,19.6418,VALID,94,VALID,0,
2001-01-12, 00:10:00,VALID,917.54,VALID,0,VALID,96.2516,VALID,-0.101885,VALID,19.6416,VALID,302,VALID,0,
2001-01-12, 00:11:00,VALID,917.546,VALID,0,VALID,96.2325,VALID,-0.101885,VALID,19.6483,VALID,272,VALID,0,
2001-01-12, 00:12:00,VALID,917.539,VALID,0,VALID,96.221,VALID,-0.0849042,VALID,19.6418,VALID,264,VALID,0,
2001-01-12, 00:13:00,VALID,917.536,VALID,0,VALID,96.2249,VALID,-0.101885,VALID,19.6485,VALID,241,VALID,0,
2001-01-12, 00:14:00,VALID,917.527,VALID,0,VALID,96.1829,VALID,-0.0679233,VALID,19.6485,VALID,233,VALID,0,
2001-01-12, 00:15:00,VALID,917.518,VALID,0,VALID,96.1982,VALID,-0.0849042,VALID,19.6353,VALID,232,VALID,0,
2001-01-12, 00:16:00,VALID,917.514,VALID,0,VALID,96.1448,VALID,-0.0679233,VALID,19.6289,VALID,232,VALID,0,
2001-01-12, 00:17:00,VALID,917.506,VALID,0,VALID,96.146,VALID,-0.101885,VALID,19.6088,VALID,232,VALID,0,
2001-01-12, 00:18:00,VALID,917.499,VALID,0,VALID,96.2109,VALID,-0.0849042,VALID,19.6028,VALID,232,VALID,0,
2001-01-12, 00:19:00,VALID,917.493,VALID,0,VALID,96.2884,VALID,-0.101885,VALID,19.6095,VALID,232,VALID,0,
2001-01-12, 00:20:00,VALID,917.485,VALID,0,VALID,96.3533,VALID,-0.0679233,VALID,19.613,VALID,232,VALID,0,
2001-01-12, 00:21:00,VALID,917.479,VALID,0,VALID,96.2757,VALID,-0.0849042,VALID,19.5864,VALID,195,VALID,0,
2001-01-12, 00:22:00,VALID,917.47,VALID,0,VALID,96.2986,VALID,-0.101885,VALID,19.574,VALID,169,VALID,0.11238,
2001-01-12, 00:23:00,VALID,917.456,VALID,0,VALID,96.1015,VALID,-0.101885,VALID,19.5513,VALID,138,VALID,0.597451,
2001-01-12, 00:24:00,VALID,917.445,VALID,0,VALID,96.113,VALID,-0.0849042,VALID,19.4994,VALID,159,VALID,0.501562,
2001-01-12, 00:25:00,VALID,917.448,VALID,0,VALID,96.3215,VALID,-0.101885,VALID,19.4803,VALID,166,VALID,0.196484,
2001-01-12, 00:26:00,VALID,917.447,VALID,0,VALID,96.4792,VALID,-0.118866,VALID,19.4577,VALID,166,VALID,0.0198317,
2001-01-12, 00:27:00,VALID,917.447,VALID,0,VALID,96.5885,VALID,-0.118866,VALID,19.435,VALID,166,VALID,0.00452303,
2001-01-12, 00:28:00,VALID,917.452,VALID,0,VALID,96.6445,VALID,-0.118866,VALID,19.4092,VALID,166,VALID,0,
2001-01-12, 00:29:00,VALID,917.446,VALID,0,VALID,96.8238,VALID,-0.101885,VALID,19.4092,VALID,166,VALID,0,
2001-01-12, 00:30:00,VALID,917.428,VALID,0,VALID,96.9433,VALID,-0.0679233,VALID,19.4159,VALID,166,VALID,0,
2001-01-12, 00:31:00,VALID,917.429,VALID,0,VALID,97.012,VALID,-0.0849042,VALID,19.4286,VALID,166,VALID,0,
2001-01-12, 00:32:00,VALID,917.421,VALID,0,VALID,96.9802,VALID,-0.101885,VALID,19.4254,VALID,166,VALID,0,
2001-01-12, 00:33:00,VALID,917.43,VALID,0,VALID,96.9141,VALID,-0.101885,VALID,19.4288,VALID,166,VALID,0,
2001-01-12, 00:34:00,VALID,917.417,VALID,0,VALID,96.8505,VALID,-0.101885,VALID,19.4256,VALID,166,VALID,0,
2001-01-12, 00:35:00,VALID,917.427,VALID,0,VALID,96.8289,VALID,-0.0679233,VALID,19.4092,VALID,166,VALID,0,
2001-01-12, 00:36:00,VALID,917.433,VALID,0,VALID,96.8848,VALID,0.101885,VALID,19.4063,VALID,166,VALID,0,
2001-01-12, 00:37:00,VALID,917.432,VALID,0,VALID,96.8988,VALID,0.135847,VALID,19.4093,VALID,172,VALID,0,
2001-01-12, 00:38:00,VALID,917.413,VALID,0,VALID,96.9777,VALID,0.101885,VALID,19.3998,VALID,174,VALID,0,
2001-01-12, 00:39:00,VALID,917.404,VALID,0,VALID,97.0374,VALID,0.101885,VALID,19.4033,VALID,174,VALID,0,
2001-01-12, 00:40:00,VALID,917.42,VALID,0,VALID,97.0323,VALID,0.101885,VALID,19.3938,VALID,174,VALID,0,
2001-01-12, 00:41:00,VALID,917.406,VALID,0,VALID,97.073,VALID,0.101885,VALID,19.3904,VALID,174,VALID,0,
2001-01-12, 00:42:00,VALID,917.401,VALID,0,VALID,97.0845,VALID,0.118866,VALID,19.3839,VALID,173,VALID,0,
2001-01-12, 00:43:00,VALID,917.387,VALID,0,VALID,96.8276,VALID,0.101885,VALID,19.3551,VALID,172,VALID,0,
2001-01-12, 00:44:00,VALID,917.364,VALID,0,VALID,96.8416,VALID,0.101885,VALID,19.3188,VALID,172,VALID,0,
2001-01-12, 00:45:00,VALID,917.357,VALID,0,VALID,97.0794,VALID,0.118866,VALID,19.3387,VALID,172,VALID,0,
2001-01-12, 00:46:00,VALID,917.343,VALID,0,VALID,97.1226,VALID,0.101885,VALID,19.3516,VALID,172,VALID,0,
2001-01-12, 00:47:00,VALID,917.331,VALID,0,VALID,96.9103,VALID,0.101885,VALID,19.3417,VALID,172,VALID,0,
2001-01-12, 00:48:00,VALID,917.327,VALID,0,VALID,96.7602,VALID,0.118866,VALID,19.3322,VALID,172,VALID,0,
2001-01-12, 00:49:00,VALID,917.322,VALID,0,VALID,96.7221,VALID,0.152827,VALID,19.3188,VALID,172,VALID,0,
2001-01-12, 00:50:00,VALID,917.308,VALID,0,VALID,96.5962,VALID,0.101885,VALID,19.2994,VALID,172,VALID,0,
2001-01-12, 00:51:00,VALID,917.305,VALID,0,VALID,96.5555,VALID,0.0169808,VALID,19.275,VALID,172,VALID,0,
2001-01-12, 00:52:00,VALID,917.306,VALID,0,VALID,96.6076,VALID,0,VALID,19.2494,VALID,172,VALID,0,
2001-01-12, 00:53:00,VALID,917.291,VALID,0,VALID,96.6877,VALID,0,VALID,19.2171,VALID,161,VALID,0.00859375,
2001-01-12, 00:54:00,VALID,917.302,VALID,0,VALID,96.7043,VALID,0.0169808,VALID,19.1883,VALID,142,VALID,0.385817,
2001-01-12, 00:55:00,VALID,917.322,VALID,0,VALID,96.984,VALID,0,VALID,19.1752,VALID,142,VALID,0.314762,
2001-01-12, 00:56:00,VALID,917.319,VALID,0,VALID,97.2879,VALID,0,VALID,19.2107,VALID,142,VALID,0.266797,
2001-01-12, 00:57:00,VALID,917.332,VALID,0,VALID,97.3375,VALID,0,VALID,19.2238,VALID,131,VALID,0,
2001-01-12, 00:58:00,VALID,917.314,VALID,0,VALID,97.2905,VALID,0,VALID,19.2238,VALID,124,VALID,0,
2001-01-12, 00:59:00,VALID,917.319,VALID,0,VALID,97.3083,VALID,0,VALID,19.2306,VALID,124,VALID,0,
2001-01-12, 01:00:00,VALID,917.32,VALID,0,VALID,97.3401,VALID,-0.0169808,VALID,19.2368,VALID,124,VALID,0,
2001-01-12, 01:01:00,VALID,917.309,VALID,0,VALID,97.4774,VALID,0.0339617,VALID,19.2725,VALID,124,VALID,0,
2001-01-12, 01:02:00,VALID,917.286,VALID,0,VALID,97.5817,VALID,0,VALID,19.288,VALID,124,VALID,0,
2001-01-12, 01:03:00,VALID,917.277,VALID,0,VALID,97.6007,VALID,0,VALID,19.3173,VALID,124,VALID,0,
2001-01-12, 01:04:00,VALID,917.277,VALID,0,VALID,97.6007,VALID,0,VALID,19.3528,VALID,124,VALID,0,
2001-01-12, 01:05:00,VALID,917.275,VALID,0,VALID,97.5028,VALID,-0.0339617,VALID,19.396,VALID,124,VALID,0,
2001-01-12, 01:06:00,VALID,917.272,VALID,0,VALID,97.3693,VALID,0,VALID,19.3958,VALID,124,VALID,0,
2001-01-12, 01:07:00,VALID,917.259,VALID,0,VALID,97.3045,VALID,0,VALID,19.4082,VALID,124,VALID,0,
2001-01-12, 01:08:00,VALID,917.266,VALID,0,VALID,97.2472,VALID,0,VALID,19.4216,VALID,124,VALID,0,
2001-01-12, 01:09:00,VALID,917.26,VALID,0,VALID,97.1646,VALID,0.0169808,VALID,19.4115,VALID,124,VALID,0,
2001-01-12, 01:10:00,VALID,917.271,VALID,0,VALID,97.0667,VALID,0,VALID,19.4147,VALID,124,VALID,0,
2001-01-12, 01:11:00,VALID,917.246,VALID,0,VALID,96.6292,VALID,0,VALID,19.3762,VALID,124,VALID,0,
2001-01-12, 01:12:00,VALID,917.234,VALID,0,VALID,96.4601,VALID,0,VALID,19.3337,VALID,124,VALID,0,
2001-01-12, 01:13:00,VALID,917.224,VALID,0,VALID,96.3495,VALID,0,VALID,19.2949,VALID,124,VALID,0,
2001-01-12, 01:14:00,VALID,917.191,VALID,0,VALID,96.2999,VALID,0,VALID,19.2534,VALID,124,VALID,0,
2001-01-12, 01:15:00,VALID,917.163,VALID,0,VALID,96.5796,VALID,0,VALID,19.2179,VALID,93,VALID,0.392681,
2001-01-12, 01:16:00,VALID,917.141,VALID,0,VALID,96.853,VALID,0.0169808,VALID,19.1913,VALID,86,VALID,0.339063,
2001-01-12, 01:17:00,VALID,917.083,VALID,0,VALID,97.3134,VALID,0,VALID,19.2462,VALID,90,VALID,0.351367,
2001-01-12, 01:18:00,VALID,917.083,VALID,0,VALID,97.3579,VALID,0,VALID,19.2658,VALID,98,VALID,0.319511,
2001-01-12, 01:19:00,VALID,917.06,VALID,0,VALID,97.2421,VALID,0,VALID,19.2855,VALID,101,VALID,0.393298,
2001-01-12, 01:20:00,VALID,917.029,VALID,0,VALID,96.9052,VALID,0,VALID,19.2467,VALID,96,VALID,0.657812,
2001-01-12, 01:21:00,VALID,917.007,VALID,0,VALID,96.9649,VALID,-0.0169808,VALID,19.2276,VALID,89,VALID,0.950977,
2001-01-12, 01:22:00,VALID,916.982,VALID,0,VALID,97.1875,VALID,-0.0169808,VALID,19.2469,VALID,82,VALID,0.7502,
2001-01-12, 01:23:00,VALID,916.955,VALID,0,VALID,97.2828,VALID,-0.0339617,VALID,19.27,VALID,83,VALID,0.528577,
2001-01-12, 01:24:00,VALID,916.923,VALID,0,VALID,97.3757,VALID,-0.0339617,VALID,19.3051,VALID,83,VALID,0.268359,
2001-01-12, 01:25:00,VALID,916.908,VALID,0,VALID,97.3464,VALID,-0.0169808,VALID,19.3434,VALID,51,VALID,0.622656,
2001-01-12, 01:26:00,VALID,916.907,VALID,0,VALID,97.1684,VALID,-0.0169808,VALID,19.4022,VALID,58,VALID,0.33113,
2001-01-12, 01:27:00,VALID,916.893,VALID,0,VALID,97.0501,VALID,-0.0169808,VALID,19.4214,VALID,57,VALID,0.098273,
2001-01-12, 01:28:00,VALID,916.873,VALID,0,VALID,97.0705,VALID,-0.0339617,VALID,19.4475,VALID,9,VALID,0.0791016,
2001-01-12, 01:29:00,VALID,916.857,VALID,0,VALID,97.0578,VALID,-0.0339617,VALID,19.448,VALID,47,VALID,0.123633,
2001-01-12, 01:30:00,VALID,916.816,VALID,0,VALID,96.8047,VALID,-0.0169808,VALID,19.4353,VALID,125,VALID,0.704728,
2001-01-12, 01:31:00,VALID,916.795,VALID,0,VALID,96.5288,VALID,-0.0169808,VALID,19.3926,VALID,83,VALID,0.458882,
2001-01-12, 01:32:00,VALID,916.813,VALID,0,VALID,96.5644,VALID,-0.0339617,VALID,19.3794,VALID,9,VALID,0.687891,
2001-01-12, 01:33:00,VALID,916.829,VALID,0,VALID,96.8874,VALID,-0.0339617,VALID,19.448,VALID,26,VALID,0.428516,
2001-01-12, 01:34:00,VALID,916.817,VALID,0,VALID,96.8708,VALID,-0.0169808,VALID,19.4701,VALID,30,VALID,0.506611,
2001-01-12, 01:35:00,VALID,916.788,VALID,0,VALID,96.82,VALID,-0.0339617,VALID,19.4858,VALID,107,VALID,0.905633,
2001-01-12, 01:36:00,VALID,916.784,VALID,0,VALID,96.4245,VALID,-0.0169808,VALID,19.5126,VALID,116,VALID,0.779297,
2001-01-12, 01:37:00,VALID,916.776,VALID,0,VALID,96.0786,VALID,0,VALID,19.4994,VALID,148,VALID,0.328516,
2001-01-12, 01:38:00,VALID,916.793,VALID,0,VALID,96.0799,VALID,0,VALID,19.486,VALID,258,VALID,0.120793,
2001-01-12, 01:39:00,VALID,916.79,VALID,0,VALID,96.1486,VALID,-0.0169808,VALID,19.4768,VALID,260,VALID,0.238076,
2001-01-12, 01:40:00,VALID,916.799,VALID,0,VALID,96.2884,VALID,0,VALID,19.4798,VALID,319,VALID,0.266992,
2001-01-12, 01:41:00,VALID,916.805,VALID,0,VALID,96.2172,VALID,0,VALID,19.5123,VALID,317,VALID,0.0525391,
2001-01-12, 01:42:00,VALID,916.803,VALID,0,VALID,96.1943,VALID,0.0169808,VALID,19.5046,VALID,317,VALID,0.0765224,
2001-01-12, 01:43:00,VALID,916.804,VALID,0,VALID,96.1053,VALID,0,VALID,19.5218,VALID,316,VALID,0,
2001-01-12, 01:44:00,VALID,916.806,VALID,0,VALID,95.9845,VALID,0,VALID,19.525,VALID,315,VALID,0,
2001-01-12, 01:45:00,VALID,916.808,VALID,0,VALID,95.8726,VALID,0,VALID,19.5086,VALID,315,VALID,0,
2001-01-12, 01:46:00,VALID,916.822,VALID,0,VALID,95.8459,VALID,-0.0169808,VALID,19.5158,VALID,301,VALID,0,
2001-01-12, 01:47:00,VALID,916.829,VALID,0,VALID,95.8154,VALID,0,VALID,19.4895,VALID,285,VALID,0,
2001-01-12, 01:48:00,VALID,916.835,VALID,0,VALID,95.6386,VALID,0,VALID,19.4636,VALID,285,VALID,0,
2001-01-12, 01:49:00,VALID,916.813,VALID,0,VALID,95.603,VALID,-0.0339617,VALID,19.4408,VALID,285,VALID,0,
2001-01-12, 01:50:00,VALID,916.807,VALID,0,VALID,95.6132,VALID,-0.0169808,VALID,19.4117,VALID,354,VALID,0.257011,
2001-01-12, 01:51:00,VALID,916.784,VALID,0,VALID,95.6145,VALID,-0.0169808,VALID,19.4346,VALID,120,VALID,0.257401,
2001-01-12, 01:52:00,VALID,916.765,VALID,0,VALID,95.2305,VALID,-0.0169808,VALID,19.3896,VALID,120,VALID,0.226367,
2001-01-12, 01:53:00,VALID,916.741,VALID,0,VALID,95.453,VALID,-0.0169808,VALID,19.3406,VALID,120,VALID,0.235742,
2001-01-12, 01:54:00,VALID,916.705,VALID,0,VALID,95.6959,VALID,0,VALID,19.3212,VALID,120,VALID,0.0689103,
2001-01-12, 01:55:00,VALID,916.681,VALID,0,VALID,95.9489,VALID,0,VALID,19.312,VALID,120,VALID,0,
2001-01-12, 01:56:00,VALID,916.653,VALID,0,VALID,95.968,VALID,0,VALID,19.2922,VALID,120,VALID,0,
2001-01-12, 01:57:00,VALID,916.631,VALID,0,VALID,95.9248,VALID,-0.0339617,VALID,19.2725,VALID,120,VALID,0.157422,
2001-01-12, 01:58:00,VALID,916.615,VALID,0,VALID,95.8192,VALID,0,VALID,19.2472,VALID,120,VALID,0.20633,
2001-01-12, 01:59:00,VALID,916.596,VALID,0,VALID,95.598,VALID,-0.0169808,VALID,19.2084,VALID,117,VALID,0.150905,
2001-01-12, 02:00:00,VALID,916.586,VALID,0,VALID,95.7289,VALID,-0.0339617,VALID,19.1928,VALID,100,VALID,0.298438,
2001-01-12, 02:01:00,VALID,916.583,VALID,0,VALID,95.8434,VALID,0.0169808,VALID,19.1498,VALID,100,VALID,0.579687,
2001-01-12, 02:02:00,VALID,916.574,VALID,0,VALID,96.0748,VALID,0,VALID,19.1374,VALID,92,VALID,1.09455,
2001-01-12, 02:03:00,VALID,916.582,VALID,0,VALID,96.277,VALID,-0.0169808,VALID,19.1408,VALID,88,VALID,1.12192,
2001-01-12, 02:04:00,VALID,916.589,VALID,0,VALID,96.4525,VALID,-0.0339617,VALID,19.154,VALID,87,VALID,1.04102,
2001-01-12, 02:05:00,VALID,916.599,VALID,0,VALID,96.4487,VALID,-0.0169808,VALID,19.1928,VALID,97,VALID,0.647461,
2001-01-12, 02:06:00,VALID,916.607,VALID,0,VALID,96.2198,VALID,0.101885,VALID,19.201,VALID,106,VALID,0.455329,
2001-01-12, 02:07:00,VALID,916.607,VALID,0,VALID,96.1002,VALID,0.0679233,VALID,19.204,VALID,97,VALID,0.504729,
2001-01-12, 02:08:00,VALID,916.614,VALID,0,VALID,95.9197,VALID,0.0849042,VALID,19.21,VALID,90,VALID,0.488867,
2001-01-12, 02:09:00,VALID,916.638,VALID,0,VALID,95.8561,VALID,0.0169808,VALID,19.2134,VALID,88,VALID,0.590234,
2001-01-12, 02:10:00,VALID,916.642,VALID,0,VALID,95.9362,VALID,0.0849042,VALID,19.2395,VALID,87,VALID,0.24399,
2001-01-12, 02:11:00,VALID,916.651,VALID,0,VALID,95.9019,VALID,0.0849042,VALID,19.2427,VALID,93,VALID,0.143914,
2001-01-12, 02:12:00,VALID,916.657,VALID,0,VALID,95.8065,VALID,0.0679233,VALID,19.2559,VALID,95,VALID,0.160742,
2001-01-12, 02:13:00,VALID,916.673,VALID,0,VALID,95.6603,VALID,0.0509425,VALID,19.249,VALID,95,VALID,0.358984,
2001-01-12, 02:14:00,VALID,916.674,VALID,0,VALID,95.378,VALID,0.0509425,VALID,19.2432,VALID,88,VALID,0.693309,
2001-01-12, 02:15:00,VALID,916.668,VALID,0,VALID,95.3157,VALID,0.0849042,VALID,19.2236,VALID,86,VALID,0.662418,
2001-01-12, 02:16:00,VALID,916.659,VALID,0,VALID,95.1287,VALID,0.0849042,VALID,19.1491,VALID,86,VALID,0.435156,
2001-01-12, 02:17:00,VALID,916.658,VALID,0,VALID,95.2902,VALID,0.0509425,VALID,19.0944,VALID,86,VALID,0.375586,
2001-01-12, 02:18:00,VALID,916.645,VALID,0,VALID,95.6882,VALID,0.0849042,VALID,19.0358,VALID,88,VALID,0.346354,
2001-01-12, 02:19:00,VALID,916.657,VALID,0,VALID,95.9133,VALID,0.101885,VALID,19.0003,VALID,91,VALID,0.0139803,
2001-01-12, 02:20:00,VALID,916.658,VALID,0,VALID,96.0125,VALID,0.101885,VALID,18.9841,VALID,84,VALID,0.605859,
2001-01-12, 02:21:00,VALID,916.654,VALID,0,VALID,96.0888,VALID,0.0339617,VALID,19.0109,VALID,67,VALID,0.458594,
2001-01-12, 02:22:00,VALID,916.647,VALID,0,VALID,96.1689,VALID,0,VALID,19.03,VALID,11,VALID,0.229768,
2001-01-12, 02:23:00,VALID,916.62,VALID,0,VALID,95.9388,VALID,0,VALID,19.0333,VALID,63,VALID,0.147821,
2001-01-12, 02:24:00,VALID,916.594,VALID,0,VALID,95.8459,VALID,0,VALID,19.0271,VALID,90,VALID,0.767773,
2001-01-12, 02:25:00,VALID,916.573,VALID,0,VALID,95.6882,VALID,0,VALID,18.9749,VALID,89,VALID,0.786328,
2001-01-12, 02:26:00,VALID,916.582,VALID,0,VALID,95.8472,VALID,0.0339617,VALID,18.956,VALID,86,VALID,0.764022,
2001-01-12, 02:27:00,VALID,916.56,VALID,0,VALID,96.0494,VALID,0.0509425,VALID,18.9647,VALID,99,VALID,0.636102,
2001-01-12, 02:28:00,VALID,916.542,VALID,0,VALID,95.9337,VALID,0.0679233,VALID,18.9749,VALID,105,VALID,0.575195,
2001-01-12, 02:29:00,VALID,916.523,VALID,0,VALID,95.8396,VALID,0.0339617,VALID,18.9719,VALID,95,VALID,0.619531,
2001-01-12, 02:30:00,VALID,916.511,VALID,0,VALID,95.7811,VALID,0.0169808,VALID,18.9821,VALID,85,VALID,0.820112,
2001-01-12, 02:31:00,VALID,916.508,VALID,0,VALID,95.7086,VALID,0,VALID,18.9652,VALID,85,VALID,0.741776,
2001-01-12, 02:32:00,VALID,916.489,VALID,0,VALID,95.926,VALID,0,VALID,18.9525,VALID,86,VALID,0.856836,
2001-01-12, 02:33:00,VALID,916.498,VALID,0,VALID,96.0519,VALID,0,VALID,18.9724,VALID,81,VALID,0.669727,
2001-01-12, 02:34:00,VALID,916.525,VALID,0,VALID,95.8739,VALID,0.0509425,VALID,18.9714,VALID,77,VALID,0.462139,
2001-01-12, 02:35:00,VALID,916.541,VALID,0,VALID,95.9057,VALID,0.0339617,VALID,18.9749,VALID,88,VALID,0.611637,
2001-01-12, 02:36:00,VALID,916.549,VALID,0,VALID,95.7963,VALID,0.0339617,VALID,19.0109,VALID,90,VALID,0.479688,
2001-01-12, 02:37:00,VALID,916.548,VALID,0,VALID,95.7277,VALID,0.0169808,VALID,19.004,VALID,104,VALID,0,
2001-01-12, 02:38:00,VALID,916.526,VALID,0,VALID,95.6323,VALID,0,VALID,19.0233,VALID,97,VALID,0.072516,
2001-01-12, 02:39:00,VALID,916.517,VALID,0,VALID,95.6145,VALID,0.0169808,VALID,19.0628,VALID,85,VALID,0.452714,
2001-01-12, 02:40:00,VALID,916.497,VALID,0,VALID,95.378,VALID,0,VALID,19.0889,VALID,46,VALID,0.105273,
2001-01-12, 02:41:00,VALID,916.483,VALID,0,VALID,95.1275,VALID,0.0169808,VALID,19.1235,VALID,44,VALID,0.00546875,
2001-01-12, 02:42:00,VALID,916.477,VALID,0,VALID,94.9698,VALID,0,VALID,19.1269,VALID,44,VALID,0.0342548,
2001-01-12, 02:43:00,VALID,916.476,VALID,0,VALID,94.9342,VALID,0.0169808,VALID,19.1272,VALID,44,VALID,0,
2001-01-12, 02:44:00,VALID,916.469,VALID,0,VALID,94.8986,VALID,0.0339617,VALID,19.1302,VALID,44,VALID,0,
2001-01-12, 02:45:00,VALID,916.466,VALID,0,VALID,94.9876,VALID,0.0169808,VALID,19.1433,VALID,44,VALID,0,
2001-01-12, 02:46:00,VALID,916.481,VALID,0,VALID,95.0079,VALID,0.0339617,VALID,19.1463,VALID,44,VALID,0,
2001-01-12, 02:47:00,VALID,916.467,VALID,0,VALID,95.1033,VALID,0.0339617,VALID,19.1689,VALID,44,VALID,0,
2001-01-12, 02:48:00,VALID,916.465,VALID,0,VALID,94.9749,VALID,0.0169808,VALID,19.1558,VALID,44,VALID,0,
2001-01-12, 02:49:00,VALID,916.459,VALID,0,VALID,94.9622,VALID,0.0169808,VALID,19.1366,VALID,44,VALID,0,
2001-01-12, 02:50:00,VALID,916.461,VALID,0,VALID,95.083,VALID,0.0509425,VALID,19.1071,VALID,44,VALID,0,
2001-01-12, 02:51:00,VALID,916.463,VALID,0,VALID,95.2648,VALID,-0.0679233,VALID,19.0891,VALID,44,VALID,0,
2001-01-12, 02:52:00,VALID,916.472,VALID,0,VALID,95.3449,VALID,-0.0509425,VALID,19.073,VALID,44,VALID,0,
2001-01-12, 02:53:00,VALID,916.471,VALID,0,VALID,95.4975,VALID,-0.0849042,VALID,19.0732,VALID,44,VALID,0,
2001-01-12, 02:54:00,VALID,916.474,VALID,0,VALID,95.6755,VALID,-0.0679233,VALID,19.07,VALID,44,VALID,0,
2001-01-12, 02:55:00,VALID,916.487,VALID,0,VALID,95.4034,VALID,-0.0849042,VALID,19.0476,VALID,44,VALID,0,
2001-01-12, 02:56:00,VALID,916.491,VALID,0,VALID,95.4479,VALID,-0.0509425,VALID,19.0022,VALID,75,VALID,0.208984,
2001-01-12, 02:57:00,VALID,916.478,VALID,0,VALID,95.5967,VALID,-0.0679233,VALID,18.9542,VALID,88,VALID,0.456445,
2001-01-12, 02:58:00,VALID,916.472,VALID,0,VALID,96.1028,VALID,-0.0339617,VALID,18.9435,VALID,87,VALID,0.17508,
2001-01-12, 02:59:00,VALID,916.469,VALID,0,VALID,96.4538,VALID,-0.0509425,VALID,18.9475,VALID,88,VALID,0.275288,
2001-01-12, 03:00:00,VALID,916.463,VALID,0,VALID,96.6343,VALID,-0.0849042,VALID,18.9574,VALID,83,VALID,0.267188,
2001-01-12, 03:01:00,VALID,916.451,VALID,0,VALID,96.8073,VALID,-0.0679233,VALID,18.9569,VALID,106,VALID,0.29043,
2001-01-12, 03:02:00,VALID,916.456,VALID,0,VALID,96.9993,VALID,-0.0849042,VALID,18.9763,VALID,97,VALID,0.0210337,
2001-01-12, 03:03:00,VALID,916.446,VALID,0,VALID,97.1938,VALID,-0.118866,VALID,19.0029,VALID,94,VALID,0,
2001-01-12, 03:04:00,VALID,916.438,VALID,0,VALID,97.3134,VALID,-0.0679233,VALID,19.0086,VALID,92,VALID,0,
2001-01-12, 03:05:00,VALID,916.404,VALID,0,VALID,97.3528,VALID,-0.0679233,VALID,19.0054,VALID,102,VALID,0.413867,
2001-01-12, 03:06:00,VALID,916.376,VALID,0,VALID,96.9319,VALID,0.0169808,VALID,19.0012,VALID,83,VALID,1.59736,
2001-01-12, 03:07:00,VALID,916.359,VALID,0,VALID,95.3131,VALID,0,VALID,19.0725,VALID,89,VALID,1.24856,
2001-01-12, 03:08:00,VALID,916.359,VALID,0,VALID,94.4319,VALID,0.0169808,VALID,19.1399,VALID,47,VALID,0.212305,
2001-01-12, 03:09:00,VALID,916.365,VALID,0,VALID,94.3581,VALID,0,VALID,19.1652,VALID,44,VALID,0.0505859,
2001-01-12, 03:10:00,VALID,916.352,VALID,0,VALID,94.5311,VALID,0.0339617,VALID,19.1821,VALID,85,VALID,0.317107,
2001-01-12, 03:11:00,VALID,916.349,VALID,0,VALID,94.6811,VALID,0.0509425,VALID,19.1719,VALID,31,VALID,0.487048,
2001-01-12, 03:12:00,VALID,916.352,VALID,0,VALID,94.8681,VALID,0,VALID,19.1655,VALID,354,VALID,0.0332031,
2001-01-12, 03:13:00,VALID,916.333,VALID,0,VALID,95.0321,VALID,0.0509425,VALID,19.1592,VALID,341,VALID,0.00195313,
2001-01-12, 03:14:00,VALID,916.345,VALID,0,VALID,95.083,VALID,0.0339617,VALID,19.1394,VALID,341,VALID,0,
2001-01-12, 03:15:00,VALID,916.353,VALID,0,VALID,95.2686,VALID,0.0339617,VALID,19.1299,VALID,341,VALID,0.0193257,
2001-01-12, 03:16:00,VALID,916.348,VALID,0,VALID,95.4581,VALID,0.0509425,VALID,19.1175,VALID,44,VALID,0.356445,
2001-01-12, 03:17:00,VALID,916.341,VALID,0,VALID,95.6196,VALID,0.0339617,VALID,19.0718,VALID,96,VALID,0.192578,
2001-01-12, 03:18:00,VALID,916.325,VALID,0,VALID,95.8319,VALID,0,VALID,19.0497,VALID,95,VALID,0,
2001-01-12, 03:19:00,VALID,916.32,VALID,0,VALID,95.8968,VALID,0,VALID,19.0333,VALID,95,VALID,0,
2001-01-12, 03:20:00,VALID,916.317,VALID,0,VALID,96.029,VALID,0,VALID,19.0335,VALID,96,VALID,0,
2001-01-12, 03:21:00,VALID,916.317,VALID,0,VALID,96.1066,VALID,0,VALID,19.031,VALID,108,VALID,0,
2001-01-12, 03:22:00,VALID,916.299,VALID,0,VALID,96.099,VALID,0,VALID,19.0181,VALID,97,VALID,0,
2001-01-12, 03:23:00,VALID,916.276,VALID,0,VALID,95.8675,VALID,0,VALID,18.9662,VALID,87,VALID,0,
2001-01-12, 03:24:00,VALID,916.283,VALID,0,VALID,95.9947,VALID,0,VALID,18.9473,VALID,91,VALID,0,
2001-01-12, 03:25:00,VALID,916.285,VALID,0,VALID,96.174,VALID,0,VALID,18.9343,VALID,95,VALID,0,
2001-01-12, 03:26:00,VALID,916.307,VALID,0,VALID,96.2643,VALID,0,VALID,18.9175,VALID,97,VALID,0,
2001-01-12, 03:27:00,VALID,916.323,VALID,0,VALID,96.3495,VALID,0,VALID,18.9272,VALID,119,VALID,0,
2001-01-12, 03:28:00,VALID,916.314,VALID,0,VALID,96.3736,VALID,0,VALID,18.9145,VALID,110,VALID,0,
2001-01-12, 03:29:00,VALID,916.299,VALID,0,VALID,96.3419,VALID,-0.0169808,VALID,18.9147,VALID,93,VALID,0.485352,
2001-01-12, 03:30:00,VALID,916.285,VALID,0,VALID,96.3329,VALID,0,VALID,18.8988,VALID,71,VALID,0.632813,
2001-01-12, 03:31:00,VALID,916.263,VALID,0,VALID,95.907,VALID,0,VALID,18.899,VALID,71,VALID,0.122327,
2001-01-12, 03:32:00,VALID,916.225,VALID,0,VALID,95.6501,VALID,0,VALID,18.9408,VALID,20,VALID,0.141992,
2001-01-12, 03:33:00,VALID,916.205,VALID,0,VALID,95.4695,VALID,-0.0169808,VALID,18.9664,VALID,104,VALID,0.50625,
2001-01-12, 03:34:00,VALID,916.174,VALID,0,VALID,95.0741,VALID,0,VALID,18.9659,VALID,89,VALID,0.634014,
2001-01-12, 03:35:00,VALID,916.152,VALID,0,VALID,94.8401,VALID,0,VALID,18.9761,VALID,88,VALID,0.891242,
2001-01-12, 03:36:00,VALID,916.145,VALID,0,VALID,94.5552,VALID,0,VALID,18.9796,VALID,47,VALID,0.616406,
2001-01-12, 03:37:00,VALID,916.129,VALID,0,VALID,94.4599,VALID,0,VALID,19.0022,VALID,26,VALID,0.0333984,
2001-01-12, 03:38:00,VALID,916.129,VALID,0,VALID,94.484,VALID,0,VALID,19.0084,VALID,32,VALID,0.00641026,
2001-01-12, 03:39:00,VALID,916.127,VALID,0,VALID,94.245,VALID,0,VALID,18.9955,VALID,13,VALID,0.293586,
2001-01-12, 03:40:00,VALID,916.13,VALID,0,VALID,93.6333,VALID,0.0169808,VALID,19.0531,VALID,82,VALID,0.967383,